Tracking 19570 objects as of 21-Feb-2019
HD Live streaming from Space Station
objects crossing your sky now

THORAD DELTA 1 DEB

Track THORAD DELTA 1 DEB now!
10-day predictions


NORAD ID: 8595
Int'l Code: 1974-089DJ
Perigee: 1,459.4 km
Apogee: 1,694.0 km
Inclination: 101.4 °
Period: 117.5 minutes
Semi major axis: 7947 km
RCS: 0.0576 m2 (small)
Launch date: November 15, 1974
Source: United States (US)
Launch site: AIR FORCE WESTERN TEST RANGE (AFWTR)

Note: This is SATELLITE DEBRIS
aabbcc
Your satellite tracking list
Your tracking list is empty




NASA's NSSDC Master Catalog

Two Line Element Set (TLE):
1  8595U 74089DJ  19051.96549088 -.00000019 +00000-0 +18267-3 0  9998
2  8595 101.4226 077.1687 0147541 003.4639 058.3955 12.25294625979994
Source of the keplerian elements: AFSPC